STARLINK-3800, 52379

Orbit data source: Space-Track

STARLINK-3800, 52379 is a payload satellite owned by SpaceX/Seattle (US) in LEO that was launched on Fri, 29 Apr 2022 UTC via an FALCON 9 launch vehicle from the Air Force Eastern Test Range (AFETR). Payload-class satellites include a variety of spacecraft equipped with specific instruments for various scientific and technological missions. These include communications satellites like Starlink; space stations such as the ISS; scientific satellites like the Hubble; Earth observation satellites from companies like Planet Labs, Umbra, and HawkEye 360; GPS; miniature CubeSats for education and research; and military/defense satellites.

Loading next visibility...
Identifier
52379, 2022-045BA
Orbit
LEO
Country
Flag of USUS
Related business
Manufacturer
SpaceX/Seattle
Mission
Operational Commercial Communications
Bus & Motor
STARLINK, Unknown motor
Mass
297 kg wet, ~275 kg dry
Launch date (UTC)
2022-04-29 (4 years ago)
Launch vehicle
FALCON 9
Launch site
Air Force Eastern Test Range (AFETR)
Object type
Payload
Rocket body
Debris
Shape & HBR
Box + 1 Pan, 10.1 m
Radar Cross Section
11.087 m², Large (>1 m²)

Expand to show TLE details & history
Last TLE update: 17 hours ago

TLE from 17 hours ago
0 STARLINK-3800
1 52379U 22045BA  25348.88783448  .00000212  00000-0  31435-4 0  9996
2 52379  53.2169 209.8122 0001307  89.7066 270.4076 15.08840630203124
Epoch: 2025-12-14T21:18Z
TLE epoch observation values (Epoch: 2025-12-14T21:18:28.899Z)
Latitude
Longitude
166.39749°
Altitude
540.633 km
Speed
7.593 km/s
True Right ascension
13h 59m 14s
True Declination
0° 00' 00"
Sunlit
Object was in daylight at epoch
Visualization orbit readout
Latitude
Unknown
Longitude
Unknown
Altitude
Unknown
Speed
Unknown
Apparent Right ascension
Unknown
Apparent Declination
Unknown
Sunlit
N/A
Visualization observer readout
Local Sidereal Time
13:19:49
Azimuth
Unknown
Elevation
Unknown
Doppler factor
Unknown
Orbital elements
Apogee altitude
540.891 km
Perigee altitude
539.082 km
Semi-major axis
6,918.123 km
Eccentricity
0.00013
Inclination
53.2169°
RAAN
209.8122°
Arg. of periapsis
89.7066°
True anomaly
270.39262°
Mean anomaly
270.4076°
Eccentric anomaly
270.40011°
Mean motion
3.7719 °/min
Orbital period
95.44 mins
BSTAR
0.000031435
Loading maneuver chart data...
Computing Atmospheric mass density...
Loading historical data...
Loading historical data...
Loading historical data...
Loading historical data...
Loading historical data...
Loading historical data...
Loading historical data...

Documentation

Showing up to 5 results
|